Location: ??????
(41.3794°N, 22.5014°E)
Time: 22:27:43
(UTC+00:00)

YAOGAN 6 - Pass Details

Date: 30 November 2020
Orbit: 465 x 502 km, 97.0° (Epoch: 19 January)

Event Time Altitude Azimuth Distance (km) Brightness Sun altitude
Rises 15:35:04 0° 165° (SSE) 2,569 6.4 -6.5°
Reaches altitude 10° 15:37:08 10° 165° (SSE) 1,686 5.4 -6.8°
Maximum altitude 15:40:46 82° 78° (ENE) 501 2.5 -7.5°
Drops below altitude 10° 15:44:23 10° 350° (N) 1,680 5.2 -8.1°
Sets 15:46:27 0° 350° (N) 2,559 6.1 -8.5°
